#timestamp,LO_Frequency,Hit,StdDev 
1517497215.5,286047001.9,N
1517497235.3,286047002.0,N
1517497255.1,286047004.2,N
1517497275.9,286047005.1,N
1517497295.7,286047001.3,N
1517497315.6,286047003.5,N
1517497335.4,286047003.4,N
1517497355.2,286047003.1,N
1517497375.1,286047005.2,N
1517497376.0,286047005.2,N
1517497395.8,286047003.0,N
1517497415.7,286047001.9,N
1517497435.5,286047002.6,N
1517497455.3,286047004.0,N
1517497475.2,286047001.7,N
1517497495.0,286047000.0,N
1517497495.9,286047000.0,N
1517497515.7,286046999.9,N
1517497535.6,286047002.7,N
1517497555.4,286046999.7,N
1517497575.3,286047002.0,N
1517497595.1,286047001.8,N
1517497596.0,286047001.8,N
1517497615.8,286047002.7,N
1517497635.7,286046999.7,N
1517497655.5,286047002.0,N
1517497675.4,286047001.8,N
1517497695.2,286047001.9,N
1517497715.0,286047002.6,N
1517497715.9,286047002.6,N
1517497735.8,286047002.6,N
1517497755.6,286047002.8,N
1517497775.4,286047002.6,N
1517497795.3,286047002.2,N
1517497815.1,286047003.6,N
1517497835.9,286047004.4,Y
1517497855.7,286047002.7,P
1517497875.5,286046999.9,N
1517497895.4,286047001.0,N
1517497915.2,286046998.1,N
1517497935.0,286047001.2,N
1517497935.9,286047001.2,N
1517497955.8,286046999.1,N
1517497975.6,286046998.9,N
1517497995.5,286046997.5,N
1517498015.3,286046997.7,N
1517498035.1,286046996.8,N
1517498055.9,286046997.1,N
1517498075.7,286046999.3,N
1517498095.6,286047000.9,N
1517498115.4,286047000.4,N
1517498135.2,286046999.9,N
1517498155.1,286047000.2,N
1517498156.0,286047000.2,N
1517498175.8,286046998.1,N
1517498195.7,286046999.3,N
1517498215.5,286046998.3,N
1517498235.3,286046999.2,N
1517498255.2,286046999.6,N
1517498275.0,286046996.9,N
1517498275.9,286046996.9,N
1517498295.7,286046998.2,N
1517498315.6,286047000.5,N
1517498335.4,286047000.0,N
1517498355.3,286047000.3,N
1517498375.1,286047000.4,N
1517498395.8,286047000.4,N
1517498415.7,286046998.5,N
1517498435.5,286046998.5,N
1517498455.4,286047001.1,N
1517498475.2,286047000.8,N
1517498495.0,286047000.0,N
1517498495.9,286047000.0,N
1517498515.8,286047000.0,N
1517498535.6,286047000.3,N
1517498555.5,286047000.4,N
1517498575.3,286047002.5,N
1517498595.1,286047002.1,N
1517498615.9,286047002.0,N
1517498635.7,286047000.1,N
1517498655.5,286047000.6,N
1517498675.4,286046999.3,N
1517498695.2,286046998.3,N
1517498715.1,286047001.0,N
1517498716.0,286047001.0,N
1517498735.8,286046998.6,N
1517498755.6,286046998.9,N
1517498775.5,286046999.1,N
1517498795.3,286046996.6,N
1517498815.1,286046999.3,N
1517498835.9,286046998.9,N
1517498855.7,286046999.6,N
1517498875.6,286046998.7,N
1517498895.4,286046998.6,N
1517498915.2,286046998.3,N
1517498935.1,286046996.6,N
1517498936.0,286046996.6,N
1517498955.8,286046999.6,N
1517498975.6,286046998.7,N
1517498995.5,286046999.5,N
1517499015.3,286046999.6,N
1517499035.2,286046998.6,N
1517499055.9,286046996.5,N
1517499075.7,286046999.6,N
1517499095.6,286046998.9,N
1517499115.4,286046999.5,N
1517499135.2,286046999.0,N
1517499155.1,286046998.6,N
1517499156.0,286046998.6,N
1517499175.8,286046998.3,N
1517499195.7,286046998.2,N
1517499215.5,286046999.0,N
1517499235.3,286046998.4,N
1517499255.9,286046998.8,N
1517499275.7,286047000.2,N
1517499295.5,286047000.7,N
1517499315.4,286046998.3,N
1517499335.2,286046998.8,N
1517499355.1,286046999.6,N
1517499356.0,286046999.6,N
1517499375.8,286046998.8,N
1517499395.6,286046998.9,N
1517499415.5,286046998.9,N
1517499435.3,286046998.5,N
1517499455.1,286046998.3,N
1517499475.9,286047001.1,N
1517499495.7,286047000.6,N
1517499515.6,286047002.3,N
1517499535.4,286047001.9,N
1517499555.2,286047002.0,N
1517499575.1,286047001.6,N
1517499576.0,286047001.6,N
1517499595.8,286047003.9,N
1517499615.7,286047003.8,N
1517499635.5,286047002.6,N
1517499655.3,286046999.7,N
1517499675.2,286046999.9,N
1517499695.9,286047001.1,N
1517499715.7,286047002.3,N
1517499735.6,286047002.6,N
1517499755.4,286047001.5,N
1517499775.2,286047001.8,N
1517499795.1,286047002.1,N
1517499796.0,286047002.1,N
1517499815.8,286047002.0,N
1517499835.7,286047002.7,N
1517499855.5,286047000.6,N
1517499875.3,286047000.2,N
1517499895.2,286047000.9,N
1517499915.0,286047002.6,N
1517499915.9,286047002.6,N
1517499935.8,286047002.1,N
1517499955.6,286047001.7,N
1517500005.5,286047000.0,E
1517500015.4,286047000.9,N
1517500035.2,286047000.5,P
1517500055.1,286047000.2,N
1517500056.0,286047000.2,N
1517500075.8,286047000.4,N
1517500095.7,286047000.5,N
1517500115.5,286047000.9,Y
1517500135.3,286046999.2,P
1517500155.2,286046999.3,N
1517500175.0,286046999.0,N
1517500175.9,286046999.0,N
1517500195.8,286046999.6,N
1517500215.6,286046996.6,Y
1517500235.5,286047000.9,P
1517500255.3,286047000.7,N
1517500275.1,286047001.2,N
1517500295.9,286046998.3,N
1517500315.7,286047000.7,N
1517500335.6,286046998.2,N
1517500355.4,286047000.6,N
1517500375.2,286047000.9,N
1517500395.1,286047002.7,N
1517500396.0,286047002.7,N
1517500415.8,286047001.3,N
1517500435.6,286047002.5,N
1517500455.5,286047001.8,N
1517500475.3,286047001.8,N
1517500495.2,286047002.5,N
1517500515.0,286047001.4,N
1517500515.9,286047001.4,N
1517500535.7,286047001.9,N
1517500555.6,286047001.5,N
1517500575.4,286047001.4,N
1517500595.3,286046999.8,N
1517500615.1,286047001.0,N
1517500635.9,286047001.1,N
1517500655.7,286046998.6,N
1517500675.5,286047001.1,N
1517500695.4,286047001.0,N
1517500715.2,286047000.2,N
1517500735.0,286047002.8,N
1517500735.9,286047002.8,N
1517500755.8,286047004.0,Y
1517500775.6,286047002.1,P
1517500795.5,286047001.4,N
